TimeAWST,TemperatureF,Dew PointF,Humidity,Sea Level PressureIn,VisibilityMPH,Wind Direction,Wind SpeedMPH,Gust SpeedMPH,PrecipitationIn,Events,Conditions,WindDirDegrees,DateUTC
12:00 AM,70,53,45,29.78,,East,25.3,,,,,80,2013-03-01 16:00:00
1:00 AM,69.8,51.8,53,29.77,-9999.0,East,25.3,-,N/A,,Unknown,80,2013-03-01 17:00:00
2:00 AM,71,50,37,29.76,,ENE,23.0,,,,,70,2013-03-01 18:00:00
2:00 AM,71.6,50.0,46,29.77,-9999.0,ENE,23.0,-,N/A,,Unknown,70,2013-03-01 18:00:00
3:00 AM,71,49,35,29.75,,ENE,23.0,,,,,70,2013-03-01 19:00:00
3:00 AM,71.6,50.0,46,29.77,-9999.0,ENE,23.0,-,N/A,,Unknown,70,2013-03-01 19:00:00
4:00 AM,73.4,48.2,41,29.77,-9999.0,ENE,20.7,-,N/A,,Unknown,60,2013-03-01 20:00:00
4:34 AM,71.6,53.6,53,29.77,-9999.0,NE,33.4,-,N/A,,Unknown,50,2013-03-01 20:34:00
5:00 AM,67,56,60,29.77,,ENE,25.3,,,,,60,2013-03-01 21:00:00
5:00 AM,66.2,57.2,73,29.77,-9999.0,ENE,25.3,-,N/A,,Unknown,60,2013-03-01 21:00:00
6:00 AM,69,53,47,29.78,,ENE,21.9,,,,,70,2013-03-01 22:00:00
6:00 AM,68.0,53.6,60,29.80,-9999.0,ENE,21.9,-,N/A,,Unknown,70,2013-03-01 22:00:00
7:00 AM,73.4,51.8,47,29.80,-9999.0,ENE,27.6,-,N/A,,Unknown,60,2013-03-01 23:00:00
8:00 AM,76,53,33,29.80,,NE,28.8,,,,,50,2013-03-02 00:00:00
8:00 AM,77.0,53.6,44,29.80,-9999.0,NE,28.8,-,N/A,,Unknown,50,2013-03-02 00:00:00
9:00 AM,82,54,28,29.80,,NE,27.6,,,,,40,2013-03-02 01:00:00
9:00 AM,82.4,53.6,37,29.80,-9999.0,NE,27.6,-,N/A,,Unknown,40,2013-03-02 01:00:00
10:00 AM,86.0,55.4,35,29.80,-9999.0,NE,25.3,-,N/A,,Unknown,40,2013-03-02 02:00:00
11:00 AM,89,57,24,29.75,,NNE,23.0,,,,,30,2013-03-02 03:00:00
11:00 AM,87.8,57.2,35,29.74,-9999.0,NNE,23.0,-,N/A,,Unknown,30,2013-03-02 03:00:00
12:00 PM,94,58,21,29.72,,NNE,21.9,,,,,30,2013-03-02 04:00:00
12:00 PM,95.0,59.0,30,29.71,-9999.0,NNE,21.9,-,N/A,,Unknown,30,2013-03-02 04:00:00
1:00 PM,95.0,57.2,28,29.71,-9999.0,NNE,17.3,-,N/A,,Unknown,20,2013-03-02 05:00:00
2:00 PM,96,57,18,29.67,,NNE,19.6,,,,,20,2013-03-02 06:00:00
3:00 PM,95.0,55.4,26,29.65,-9999.0,NE,19.6,-,N/A,,Unknown,40,2013-03-02 07:00:00
4:00 PM,93.2,55.4,28,29.65,-9999.0,ENE,19.6,-,N/A,,Unknown,70,2013-03-02 08:00:00
4:42 PM,89.6,59.0,36,29.68,-9999.0,NE,23.0,38.0,N/A,,Unknown,40,2013-03-02 08:42:00
5:00 PM,89,59,26,29.67,,ENE,20.7,,,,,60,2013-03-02 09:00:00
5:00 PM,89.6,59.0,36,29.68,-9999.0,ENE,20.7,-,N/A,,Unknown,60,2013-03-02 09:00:00
6:00 PM,88,58,26,29.66,,East,12.7,,,,,80,2013-03-02 10:00:00
6:00 PM,87.8,57.2,35,29.68,-9999.0,East,12.7,-,N/A,,Unknown,80,2013-03-02 10:00:00
7:00 PM,89.6,55.4,31,29.71,-9999.0,ENE,16.1,-,N/A,,Unknown,70,2013-03-02 11:00:00
8:00 PM,86,57,27,29.71,,ENE,17.3,,,,,70,2013-03-02 12:00:00
8:00 PM,86.0,57.2,37,29.71,-9999.0,ENE,17.3,-,N/A,,Unknown,70,2013-03-02 12:00:00
9:00 PM,85,59,31,29.71,,ENE,11.5,,,,,70,2013-03-02 13:00:00
9:00 PM,84.2,59.0,42,29.71,-9999.0,ENE,11.5,-,N/A,,Unknown,70,2013-03-02 13:00:00
10:00 PM,84.2,57.2,40,29.71,-9999.0,NE,13.8,-,N/A,,Unknown,50,2013-03-02 14:00:00
11:00 PM,83,54,26,29.70,,ENE,12.7,,,,,70,2013-03-02 15:00:00
11:00 PM,82.4,53.6,37,29.71,-9999.0,ENE,12.7,-,N/A,,Unknown,70,2013-03-02 15:00:00